Theta_e
348 344 344 347 349 348 344 343 349 342 347 343 343 347 345 346 351 351 353 364 364 364 365 361 361 361 361 361 360 361 360 358 358 359 359 360 360 358 356 355 354 355 354
352 350 347 345 350 351 350 352 349 342 344 345 342 341 341 351 345 347 353 355 364 364 364 365 364 363 361 361 361 361 357 359 359 360 361 361 359 358 355 354 353 352 354
351 346 345 347 352 350 343 342 347 344 345 345 345 343 346 346 342 346 351 351 356 364 364 365 365 364 364 362 361 359 360 362 364 360 359 359 359 358 355 352 352 354 355
354 349 351 350 349 346 345 342 339 341 340 343 341 341 350 349 338 349 353 353 352 354 362 365 365 364 365 361 360 360 361 363 362 359 358 356 355 354 352 353 354 353 352
353 349 353 351 349 344 341 341 339 338 335 339 338 343 342 342 346 354 354 352 350 351 354 362 363 363 364 361 361 359 361 360 360 359 357 355 353 352 353 355 352 351 351
351 351 351 351 354 345 337 336 341 335 336 334 341 341 335 341 340 341 347 343 341 351 352 353 356 358 365 364 362 360 360 359 357 357 356 354 353 352 353 353 351 350 349
351 347 351 352 351 347 342 336 337 337 335 339 340 330 341 342 339 337 346 341 352 356 353 353 353 353 360 363 363 363 360 358 357 356 354 354 352 351 351 352 351 349 348
352 352 349 347 351 348 347 345 337 338 338 339 336 330 331 334 337 336 343 347 347 352 356 354 352 346 355 357 358 363 361 359 358 356 355 353 352 350 350 350 349 349 349
352 352 348 351 350 351 346 349 349 344 331 328 334 336 331 325 328 340 343 342 343 346 345 350 355 353 356 356 360 362 361 358 359 357 356 355 353 350 348 348 349 349 348
349 352 350 349 350 351 349 349 355 347 333 327 337 341 340 338 328 327 336 337 341 340 337 345 355 355 354 354 359 360 360 357 359 359 358 357 354 348 348 346 347 348 346
350 353 351 348 351 350 348 349 350 345 350 346 344 341 343 340 340 334 330 331 341 341 341 343 346 353 359 358 357 357 359 357 358 359 360 359 355 348 347 345 345 345 342
351 352 353 350 351 350 348 350 350 350 349 349 348 344 340 337 334 332 328 333 333 338 341 344 345 351 350 355 359 351 354 356 356 357 358 359 357 351 347 345 344 345 340
349 349 352 349 349 350 351 351 348 350 351 349 349 346 347 343 341 337 334 330 331 337 337 341 348 344 350 354 356 357 356 353 353 352 353 355 355 353 351 349 346 346 340
348 351 352 352 350 353 352 349 350 349 348 349 348 348 347 345 343 340 336 338 329 329 333 338 341 347 350 355 344 357 355 350 350 349 349 351 352 351 350 350 349 349 345
345 345 348 348 350 349 352 350 350 349 348 347 348 349 348 349 344 340 343 344 336 329 330 339 343 347 351 354 355 358 353 349 348 347 346 348 349 349 348 347 346 345 342
346 344 345 345 343 339 339 346 349 349 348 346 348 347 348 350 346 347 344 344 344 335 333 339 343 347 352 351 347 348 341 350 347 346 344 344 346 347 346 345 343 341 339
345 344 344 342 341 338 340 345 349 348 348 347 347 347 348 348 349 347 347 346 343 340 332 339 345 350 346 349 349 350 346 350 349 344 344 343 343 344 344 342 340 338 337
346 344 344 343 339 338 340 347 349 348 345 345 346 347 346 352 346 347 348 346 344 342 342 337 342 344 344 347 349 346 351 356 348 345 343 342 341 340 340 338 336 334 333
349 345 344 342 340 341 343 347 350 348 347 347 348 347 346 348 347 347 345 346 346 346 343 342 340 344 344 345 348 350 351 348 355 347 341 340 339 339 337 334 331 328 327
351 350 349 347 346 347 350 351 350 350 348 348 349 349 350 349 347 346 348 345 344 343 342 341 340 340 340 343 344 342 345 347 343 350 346 342 340 339 336 331 329 327 323
354 354 352 351 352 353 352 349 350 349 348 349 351 351 351 351 350 349 348 347 345 342 340 339 339 339 339 338 339 342 340 342 342 343 339 339 336 336 335 331 332 330 324
351 352 352 349 349 353 345 343 349 348 348 348 346 347 349 346 348 343 342 342 346 344 338 337 338 337 338 338 341 340 337 334 333 344 337 337 337 333 330 328 329 326 322
349 351 351 351 347 350 343 338 340 344 347 346 345 347 348 351 346 346 342 337 337 337 339 340 337 338 337 340 341 337 338 337 335 341 337 334 337 331 331 330 327 323 321
349 348 348 348 346 348 337 335 338 341 344 345 346 347 344 345 342 341 343 342 344 345 344 342 340 343 343 346 344 342 339 338 338 341 336 330 330 323 324 325 325 322 319
347 347 349 347 345 343 332 333 336 341 344 341 343 338 341 337 327 327 337 338 338 340 342 335 334 334 333 333 337 341 340 338 336 338 341 330 323 319 320 318 319 319 316
349 349 346 343 336 333 326 326 331 339 338 340 340 330 328 330 323 324 335 335 334 335 332 334 337 338 332 336 334 339 342 336 336 334 341 326 319 317 312 316 315 313 311
Wind_Speed
4 4 5 4 3 3 5 4 5 1 8 7 5 12 5 8 3 2 1 13 12 12 12 12 11 10 9 8 7 7 5 4 5 7 9 10 10 9 8 8 7 6 6
4 2 2 3 1 6 3 4 3 5 6 4 1 8 7 10 1 2 6 4 13 12 11 10 10 9 8 8 8 6 5 5 7 9 12 12 11 10 9 8 8 6 7
4 2 2 2 2 8 14 4 2 3 3 1 8 13 9 5 4 5 3 5 6 10 10 10 10 10 9 9 8 8 5 8 11 12 11 11 9 9 9 7 7 6 8
5 3 4 1 3 7 5 7 4 4 2 6 2 2 4 8 11 7 5 4 4 5 7 10 9 10 11 11 10 9 7 12 13 12 10 9 10 10 9 7 11 12 12
4 2 3 1 6 4 4 4 4 5 8 10 10 3 3 4 4 3 6 5 3 2 3 10 10 8 12 12 11 10 10 10 11 10 9 9 8 8 9 12 11 10 10
4 3 4 3 4 4 4 2 3 5 4 4 10 11 7 2 3 1 13 6 8 9 5 4 4 6 10 13 13 12 11 10 10 10 9 8 8 8 8 9 9 8 8
4 1 2 3 2 5 5 5 3 5 1 3 3 5 4 4 6 2 3 7 1 7 6 5 3 5 5 13 13 13 13 13 11 10 9 8 7 7 6 7 7 7 8
5 3 3 0 4 3 6 8 5 2 2 1 2 1 4 5 4 3 3 5 3 3 3 3 4 6 5 5 8 12 12 14 14 12 10 9 8 8 7 6 6 7 8
6 4 1 3 1 2 2 1 5 8 4 1 6 3 3 2 2 2 6 3 6 3 5 2 6 7 6 6 9 10 11 12 14 14 11 10 9 8 8 7 7 7 7
6 6 3 2 2 0 2 1 1 3 3 5 5 2 6 4 2 3 4 5 3 8 5 4 9 3 7 4 9 11 13 10 12 14 13 12 11 11 10 9 8 7 6
7 6 6 5 3 2 1 2 1 3 2 2 2 2 3 2 1 2 3 5 4 4 4 8 2 7 11 9 9 11 17 14 13 13 13 13 12 12 11 10 9 8 6
5 7 7 7 6 4 3 3 2 3 3 2 2 2 2 1 2 1 1 3 3 2 4 4 1 2 5 1 9 17 17 15 13 13 12 14 13 13 12 11 10 8 7
5 6 6 6 4 5 6 4 3 4 3 2 2 2 2 1 1 1 1 3 3 3 2 4 3 4 3 6 5 9 17 18 15 12 12 13 13 12 11 11 10 9 8
5 6 5 5 7 6 5 4 3 4 3 3 5 4 3 4 1 1 1 2 4 2 1 3 2 3 4 5 7 5 7 14 16 16 13 13 12 12 11 11 10 10 9
5 7 7 7 4 3 4 5 4 5 4 4 6 5 5 4 4 0 1 2 2 2 3 4 3 4 3 3 9 9 6 12 15 15 15 13 13 12 12 11 10 10 10
7 7 7 6 6 4 4 3 4 5 5 5 4 5 4 4 6 1 1 3 2 2 1 1 3 4 3 6 7 6 4 7 19 19 16 14 13 12 12 11 10 10 10
7 6 6 6 6 6 5 5 5 6 4 5 6 4 5 4 3 3 1 1 2 3 4 3 3 6 6 6 6 4 4 7 9 12 14 15 14 13 12 10 10 11 11
6 8 6 5 5 5 6 6 6 7 6 6 6 5 6 4 5 4 2 4 2 2 3 4 4 3 4 5 9 6 9 8 7 12 15 15 14 12 11 11 10 11 11
8 7 7 7 8 7 6 6 7 7 7 7 7 7 8 6 6 4 4 3 2 2 1 2 3 3 4 3 3 4 6 3 4 6 10 8 11 12 13 12 12 12 12
8 8 9 9 9 8 8 7 7 8 8 8 7 7 7 7 8 7 6 6 4 4 3 3 3 3 3 5 2 4 4 1 2 2 6 9 10 10 10 11 12 12 12
9 9 7 7 7 8 8 7 6 7 7 8 8 8 8 9 11 10 5 6 5 4 4 4 3 3 3 3 4 2 4 3 1 3 3 2 3 4 4 8 9 13 13
8 7 9 8 7 8 11 12 11 8 8 8 8 7 7 8 7 8 11 11 7 8 5 4 3 5 5 4 2 3 3 0 3 2 2 3 4 4 4 4 10 14 14
7 7 7 7 7 7 12 8 9 6 7 8 8 8 6 8 8 7 7 7 7 11 11 5 7 8 6 6 4 2 3 3 4 4 3 3 4 3 4 5 12 14 14
7 6 6 6 5 5 2 4 7 5 6 6 7 8 6 6 4 4 5 5 6 6 6 6 9 11 9 7 6 6 6 5 3 3 3 4 3 2 2 2 14 15 15
4 4 4 4 4 3 8 6 5 4 3 3 3 5 5 5 4 5 3 5 6 6 5 8 10 10 11 12 10 2 6 5 7 5 6 4 3 3 1 2 5 15 15
4 5 6 6 7 5 5 6 5 2 1 2 5 6 9 6 3 2 2 2 5 4 5 8 6 5 8 9 12 8 7 8 6 3 7 7 4 5 4 2 4 5 6
Wind_Direction
271 204 208 213 215 178 89 33 2 14 90 4 344 60 312 297 346 119 198 180 181 173 170 175 173 170 167 162 157 156 165 166 164 151 138 129 121 116 109 104 106 114 122
254 219 154 200 50 115 92 37 97 201 87 114 188 185 198 182 39 202 153 193 201 175 172 184 178 170 163 155 152 151 156 144 139 141 127 130 129 125 121 113 109 114 111
347 32 290 344 37 71 98 99 147 130 17 346 245 211 297 160 84 145 214 173 212 190 179 191 174 165 156 150 147 149 170 166 133 128 131 134 137 140 116 105 105 104 111
334 30 18 322 82 87 101 124 136 87 325 343 2 157 172 262 155 187 182 194 186 174 191 197 184 170 155 149 150 144 118 135 133 134 139 131 124 121 120 118 116 107 107
333 17 20 47 41 93 72 66 184 102 13 340 344 289 175 12 79 165 122 169 150 181 248 191 189 187 159 150 151 153 133 119 121 136 140 136 132 132 123 117 120 118 117
294 30 83 19 89 124 97 31 1 70 151 341 334 316 323 266 135 222 177 157 143 159 212 207 187 192 173 157 156 159 151 142 142 143 142 139 138 139 136 128 128 129 124
263 315 124 170 263 126 197 120 59 70 336 287 303 324 277 282 54 88 169 41 173 152 159 179 221 202 173 165 163 168 165 157 155 154 153 148 146 145 142 141 140 136 129
240 242 181 164 6 119 168 166 127 118 294 319 249 188 326 339 8 336 80 111 315 336 238 220 236 277 174 174 165 174 176 166 162 165 165 164 161 159 156 152 142 131 125
228 240 194 28 336 50 79 197 148 167 186 353 233 144 357 267 333 326 56 103 155 128 70 299 259 213 224 178 165 178 183 181 171 169 177 174 171 174 172 164 154 139 132
217 201 208 225 196 118 8 4 23 137 149 164 226 114 216 229 177 344 358 294 187 142 181 193 217 281 222 174 164 173 178 196 189 177 182 187 182 182 180 172 166 155 148
197 190 198 203 186 213 200 314 275 146 198 143 165 266 248 215 252 121 267 297 311 31 270 141 200 216 210 181 172 179 179 184 202 191 188 190 188 185 182 178 174 167 159
193 198 191 187 183 196 226 231 239 215 219 184 209 224 188 127 313 304 190 232 231 272 267 11 171 239 102 261 199 176 174 183 202 202 190 181 191 190 187 184 181 179 172
203 212 191 185 187 198 213 206 222 206 201 209 242 270 281 237 183 215 195 265 196 237 214 255 315 357 69 34 285 219 177 180 191 204 193 188 186 192 192 190 188 188 185
185 206 179 185 195 199 209 220 226 203 214 251 261 263 284 286 247 220 251 316 318 331 150 154 307 57 102 147 224 269 205 179 193 193 201 198 191 189 196 197 193 192 187
164 162 164 168 175 177 211 202 189 213 215 229 240 249 243 261 274 226 91 55 154 340 320 19 95 342 116 174 222 184 192 202 204 202 196 201 197 192 193 201 201 194 177
169 180 189 166 171 220 225 246 210 228 233 240 238 245 257 246 264 181 133 100 89 179 303 151 59 158 176 261 236 189 216 192 221 206 193 199 201 196 195 199 195 186 176
168 192 209 175 199 213 226 237 233 235 246 256 250 240 272 272 262 267 203 118 159 158 175 279 159 190 204 205 251 264 238 232 211 203 202 196 196 195 192 196 190 182 178
185 185 199 206 200 219 221 223 222 227 225 246 250 253 264 274 262 258 226 253 240 225 191 249 201 232 222 199 218 202 223 217 197 205 203 195 195 189 182 190 186 178 174
183 196 189 200 215 219 218 231 221 216 222 224 236 229 236 240 256 260 247 245 254 264 276 216 261 203 240 256 260 225 209 148 181 199 182 185 180 186 180 181 181 179 172
201 195 189 199 209 219 220 218 210 213 225 234 228 231 234 231 226 235 237 236 238 250 252 248 249 254 232 265 224 227 258 174 156 151 154 164 171 187 187 178 176 175 165
201 194 200 211 207 209 223 224 222 220 218 230 232 237 239 232 223 222 224 242 227 237 238 238 245 234 247 267 225 232 215 225 110 158 146 167 153 151 174 173 174 164 154
199 200 205 203 209 226 225 218 219 234 230 231 240 243 243 251 258 247 237 245 232 233 248 234 222 230 247 247 242 181 152 320 282 188 140 163 154 170 157 170 166 155 151
186 200 204 203 226 218 230 206 221 229 248 239 225 229 239 248 241 254 263 273 267 252 240 217 249 248 243 222 210 233 221 190 212 197 133 166 168 159 171 169 158 153 149
184 188 207 222 239 250 285 222 205 215 238 240 233 224 226 250 331 315 308 280 259 258 243 213 223 251 249 245 208 210 214 203 216 187 144 164 137 109 74 107 157 153 146
180 191 178 195 207 120 128 173 190 238 237 282 336 49 79 79 8 39 332 289 291 281 262 270 249 241 254 267 249 258 253 236 243 198 181 133 139 112 74 104 141 152 147
158 143 124 129 124 129 137 144 181 215 213 100 102 107 97 126 115 93 129 251 278 282 329 316 311 293 244 249 239 216 248 237 237 222 178 145 145 145 158 165 154 144 139